iso_date,epoch_date,Year,Hour,Min,DOY,POS_DOY,Lat,Lon,BP,Ts,Ta,has_bp,has_ts,has_ta,BuoyID,Buoy_Type,Buoy_Owner,Logistics,Hemisphere
2020-09-07T22:00:02Z,1599516003,2020,22,0,251.9167,251.9167,59.103,-179.711,1015.4,10.28,-999.0,yes,yes,no,300534060713650,BD2GI,AOML,ARAON,North
2020-09-07T22:59:57Z,1599519597,2020,23,0,251.9583,251.9583,59.107,-179.722,1015.8,10.32,-999.0,yes,yes,no,300534060713650,BD2GI,AOML,ARAON,North
2020-09-08T00:00:00Z,1599523200,2020,0,0,252.0,252.0,59.113,-179.73,1016.3,10.36,-999.0,yes,yes,no,300534060713650,BD2GI,AOML,ARAON,North
2020-09-08T01:00:02Z,1599526803,2020,1,0,252.0417,252.0417,59.118,-179.735,1016.9,10.38,-999.0,yes,yes,no,300534060713650,BD2GI,AOML,ARAON,North
2020-09-08T01:59:57Z,1599530397,2020,2,0,252.0833,252.0833,59.123,-179.739,1017.1,10.43,-999.0,yes,yes,no,300534060713650,BD2GI,AOML,ARAON,North
2020-09-08T03:00:00Z,1599534000,2020,3,0,252.125,252.125,59.128,-179.742,1017.3,10.44,-999.0,yes,yes,no,300534060713650,BD2GI,AOML,ARAON,North
2020-09-08T04:00:02Z,1599537603,2020,4,0,252.1667,252.1667,59.13,-179.744,1017.7,10.44,-999.0,yes,yes,no,300534060713650,BD2GI,AOML,ARAON,North
2020-09-08T04:59:57Z,1599541197,2020,5,0,252.2083,252.2083,59.133,-179.745,1018.3,10.43,-999.0,yes,yes,no,300534060713650,BD2GI,AOML,ARAON,North
2020-09-08T06:00:00Z,1599544800,2020,6,0,252.25,252.25,59.135,-179.749,1018.6,10.41,-999.0,yes,yes,no,300534060713650,BD2GI,AOML,ARAON,North
2020-09-08T07:00:02Z,1599548403,2020,7,0,252.2917,252.2917,59.136,-179.755,1019.2,10.39,-999.0,yes,yes,no,300534060713650,BD2GI,AOML,ARAON,North
2020-09-08T07:59:57Z,1599551997,2020,8,0,252.3333,252.3333,59.135,-179.762,1019.7,10.39,-999.0,yes,yes,no,300534060713650,BD2GI,AOML,ARAON,North
2020-09-08T09:00:00Z,1599555600,2020,9,0,252.375,252.375,59.135,-179.772,1020.0,10.38,-999.0,yes,yes,no,300534060713650,BD2GI,AOML,ARAON,North
2020-09-08T10:00:02Z,1599559203,2020,10,0,252.4167,252.4167,59.137,-179.783,1020.5,10.36,-999.0,yes,yes,no,300534060713650,BD2GI,AOML,ARAON,North
2020-09-08T10:59:57Z,1599562797,2020,11,0,252.4583,252.4583,59.139,-179.795,1020.9,10.3,-999.0,yes,yes,no,300534060713650,BD2GI,AOML,ARAON,North
2020-09-08T12:00:00Z,1599566400,2020,12,0,252.5,252.5,59.143,-179.806,1021.1,10.34,-999.0,yes,yes,no,300534060713650,BD2GI,AOML,ARAON,North
2020-09-08T13:00:02Z,1599570003,2020,13,0,252.5417,252.5417,59.146,-179.815,1021.3,10.42,-999.0,yes,yes,no,300534060713650,BD2GI,AOML,ARAON,North
2020-09-08T13:59:57Z,1599573597,2020,14,0,252.5833,252.5833,59.149,-179.823,1021.5,10.46,-999.0,yes,yes,no,300534060713650,BD2GI,AOML,ARAON,North
2020-09-08T15:00:00Z,1599577200,2020,15,0,252.625,252.625,59.152,-179.831,1021.5,10.46,-999.0,yes,yes,no,300534060713650,BD2GI,AOML,ARAON,North
2020-09-08T16:00:02Z,1599580803,2020,16,0,252.6667,252.6667,59.157,-179.839,1021.7,10.44,-999.0,yes,yes,no,300534060713650,BD2GI,AOML,ARAON,North
2020-09-08T16:59:57Z,1599584397,2020,17,0,252.7083,252.7083,59.16,-179.845,1021.9,10.41,-999.0,yes,yes,no,300534060713650,BD2GI,AOML,ARAON,North
2020-09-08T18:00:00Z,1599588000,2020,18,0,252.75,252.75,59.164,-179.851,1022.2,10.38,-999.0,yes,yes,no,300534060713650,BD2GI,AOML,ARAON,North
2020-09-08T19:00:02Z,1599591603,2020,19,0,252.7917,252.7917,59.166,-179.855,1022.6,10.42,-999.0,yes,yes,no,300534060713650,BD2GI,AOML,ARAON,North
2020-09-08T19:59:57Z,1599595197,2020,20,0,252.8333,252.8333,59.166,-179.86,1022.8,10.48,-999.0,yes,yes,no,300534060713650,BD2GI,AOML,ARAON,North
2020-09-08T21:00:00Z,1599598800,2020,21,0,252.875,252.875,59.168,-179.869,1023.1,10.56,-999.0,yes,yes,no,300534060713650,BD2GI,AOML,ARAON,North
2020-09-08T22:00:02Z,1599602403,2020,22,0,252.9167,252.9167,59.168,-179.877,1023.2,10.62,-999.0,yes,yes,no,300534060713650,BD2GI,AOML,ARAON,North
2020-09-08T22:59:57Z,1599605997,2020,23,0,252.9583,252.9583,59.168,-179.888,1023.3,10.64,-999.0,yes,yes,no,300534060713650,BD2GI,AOML,ARAON,North
2020-09-09T00:00:00Z,1599609600,2020,0,0,253.0,253.0,59.169,-179.902,1023.4,10.65,-999.0,yes,yes,no,300534060713650,BD2GI,AOML,ARAON,North
2020-09-09T01:00:02Z,1599613203,2020,1,0,253.0417,253.0417,59.172,-179.916,1023.3,10.66,-999.0,yes,yes,no,300534060713650,BD2GI,AOML,ARAON,North
2020-09-09T01:59:57Z,1599616797,2020,2,0,253.0833,253.0833,59.175,-179.931,1023.3,10.68,-999.0,yes,yes,no,300534060713650,BD2GI,AOML,ARAON,North
2020-09-09T03:00:00Z,1599620400,2020,3,0,253.125,253.125,59.18,-179.945,1023.1,10.65,-999.0,yes,yes,no,300534060713650,BD2GI,AOML,ARAON,North
2020-09-09T04:00:02Z,1599624003,2020,4,0,253.1667,253.1667,59.185,-179.955,1022.9,10.63,-999.0,yes,yes,no,300534060713650,BD2GI,AOML,ARAON,North
2020-09-09T04:59:57Z,1599627597,2020,5,0,253.2083,253.2083,59.189,-179.961,1022.7,10.63,-999.0,yes,yes,no,300534060713650,BD2GI,AOML,ARAON,North
2020-09-09T06:00:00Z,1599631200,2020,6,0,253.25,253.25,59.192,-179.966,1022.5,10.59,-999.0,yes,yes,no,300534060713650,BD2GI,AOML,ARAON,North
2020-09-09T07:00:02Z,1599634803,2020,7,0,253.2917,253.2917,59.194,-179.973,1022.8,10.55,-999.0,yes,yes,no,300534060713650,BD2GI,AOML,ARAON,North
2020-09-09T07:59:57Z,1599638397,2020,8,0,253.3333,253.3333,59.195,-179.981,1022.7,10.54,-999.0,yes,yes,no,300534060713650,BD2GI,AOML,ARAON,North
2020-09-09T09:00:00Z,1599642000,2020,9,0,253.375,253.375,59.196,-179.989,1022.5,10.53,-999.0,yes,yes,no,300534060713650,BD2GI,AOML,ARAON,North
2020-09-09T10:00:02Z,1599645603,2020,10,0,253.4167,253.4167,59.197,-179.998,1022.4,10.48,-999.0,yes,yes,no,300534060713650,BD2GI,AOML,ARAON,North
2020-09-09T10:59:57Z,1599649197,2020,11,0,253.4583,253.4583,59.198,179.992,1022.1,10.47,-999.0,yes,yes,no,300534060713650,BD2GI,AOML,ARAON,North
2020-09-09T12:00:00Z,1599652800,2020,12,0,253.5,253.5,59.2,179.981,1022.1,10.44,-999.0,yes,yes,no,300534060713650,BD2GI,AOML,ARAON,North
2020-09-09T13:00:02Z,1599656403,2020,13,0,253.5417,253.5417,59.202,179.969,1021.6,10.39,-999.0,yes,yes,no,300534060713650,BD2GI,AOML,ARAON,North
2020-09-09T13:59:57Z,1599659997,2020,14,0,253.5833,253.5833,59.205,179.957,1021.0,10.38,-999.0,yes,yes,no,300534060713650,BD2GI,AOML,ARAON,North
2020-09-09T15:00:00Z,1599663600,2020,15,0,253.625,253.625,59.209,179.943,1020.8,10.36,-999.0,yes,yes,no,300534060713650,BD2GI,AOML,ARAON,North
2020-09-09T16:00:02Z,1599667203,2020,16,0,253.6667,253.6667,59.213,179.931,1020.3,10.34,-999.0,yes,yes,no,300534060713650,BD2GI,AOML,ARAON,North
2020-09-09T16:59:57Z,1599670797,2020,17,0,253.7083,253.7083,59.218,179.919,1020.0,10.32,-999.0,yes,yes,no,300534060713650,BD2GI,AOML,ARAON,North
2020-09-09T18:00:00Z,1599674400,2020,18,0,253.75,253.75,59.223,179.909,1020.0,10.32,-999.0,yes,yes,no,300534060713650,BD2GI,AOML,ARAON,North
2020-09-09T19:00:02Z,1599678003,2020,19,0,253.7917,253.7917,59.227,179.903,1020.0,10.29,-999.0,yes,yes,no,300534060713650,BD2GI,AOML,ARAON,North
2020-09-09T19:59:57Z,1599681597,2020,20,0,253.8333,253.8333,59.229,179.899,1020.3,10.3,-999.0,yes,yes,no,300534060713650,BD2GI,AOML,ARAON,North
2020-09-09T21:00:00Z,1599685200,2020,21,0,253.875,253.875,59.229,179.895,1020.5,10.29,-999.0,yes,yes,no,300534060713650,BD2GI,AOML,ARAON,North
2020-09-09T22:00:02Z,1599688803,2020,22,0,253.9167,253.9167,59.228,179.89,1020.5,10.27,-999.0,yes,yes,no,300534060713650,BD2GI,AOML,ARAON,North
2020-09-09T22:59:57Z,1599692397,2020,23,0,253.9583,253.9583,59.226,179.88,1020.3,10.26,-999.0,yes,yes,no,300534060713650,BD2GI,AOML,ARAON,North
2020-09-10T00:00:00Z,1599696000,2020,0,0,254.0,254.0,59.226,179.867,1020.3,10.26,-999.0,yes,yes,no,300534060713650,BD2GI,AOML,ARAON,North
2020-09-10T01:00:02Z,1599699603,2020,1,0,254.0417,254.0417,59.228,179.85,1020.3,10.24,-999.0,yes,yes,no,300534060713650,BD2GI,AOML,ARAON,North
2020-09-10T01:59:57Z,1599703197,2020,2,0,254.0833,254.0833,59.231,179.831,1020.0,10.23,-999.0,yes,yes,no,300534060713650,BD2GI,AOML,ARAON,North
2020-09-10T03:00:00Z,1599706800,2020,3,0,254.125,254.125,59.236,179.817,1019.8,10.21,-999.0,yes,yes,no,300534060713650,BD2GI,AOML,ARAON,North
2020-09-10T04:00:02Z,1599710403,2020,4,0,254.1667,254.1667,59.24,179.805,1019.6,10.21,-999.0,yes,yes,no,300534060713650,BD2GI,AOML,ARAON,North
2020-09-10T04:59:57Z,1599713997,2020,5,0,254.2083,254.2083,59.245,179.794,1019.5,10.2,-999.0,yes,yes,no,300534060713650,BD2GI,AOML,ARAON,North
2020-09-10T06:00:00Z,1599717600,2020,6,0,254.25,254.25,59.246,179.788,1019.3,10.19,-999.0,yes,yes,no,300534060713650,BD2GI,AOML,ARAON,North
2020-09-10T07:00:02Z,1599721203,2020,7,0,254.2917,254.2917,59.246,179.782,1019.2,10.19,-999.0,yes,yes,no,300534060713650,BD2GI,AOML,ARAON,North
2020-09-10T07:59:57Z,1599724797,2020,8,0,254.3333,254.3333,59.244,179.774,1019.3,10.18,-999.0,yes,yes,no,300534060713650,BD2GI,AOML,ARAON,North
2020-09-10T09:00:00Z,1599728400,2020,9,0,254.375,254.375,59.242,179.761,1019.2,10.18,-999.0,yes,yes,no,300534060713650,BD2GI,AOML,ARAON,North
2020-09-10T10:00:02Z,1599732003,2020,10,0,254.4167,254.4167,59.242,179.745,1019.0,10.17,-999.0,yes,yes,no,300534060713650,BD2GI,AOML,ARAON,North
2020-09-10T10:59:57Z,1599735597,2020,11,0,254.4583,254.4583,59.244,179.73,1018.7,10.17,-999.0,yes,yes,no,300534060713650,BD2GI,AOML,ARAON,North
2020-09-10T12:00:00Z,1599739200,2020,12,0,254.5,254.5,59.246,179.714,1018.6,10.18,-999.0,yes,yes,no,300534060713650,BD2GI,AOML,ARAON,North
2020-09-10T13:00:02Z,1599742803,2020,13,0,254.5417,254.5417,59.249,179.7,1018.3,10.18,-999.0,yes,yes,no,300534060713650,BD2GI,AOML,ARAON,North
2020-09-10T13:59:57Z,1599746397,2020,14,0,254.5833,254.5833,59.253,179.692,1018.1,10.18,-999.0,yes,yes,no,300534060713650,BD2GI,AOML,ARAON,North
2020-09-10T15:00:00Z,1599750000,2020,15,0,254.625,254.625,59.255,179.687,1017.9,10.18,-999.0,yes,yes,no,300534060713650,BD2GI,AOML,ARAON,North
2020-09-10T16:00:02Z,1599753603,2020,16,0,254.6667,254.6667,59.255,179.677,1017.7,10.18,-999.0,yes,yes,no,300534060713650,BD2GI,AOML,ARAON,North
2020-09-10T16:59:57Z,1599757197,2020,17,0,254.7083,254.7083,59.256,179.666,1017.5,10.18,-999.0,yes,yes,no,300534060713650,BD2GI,AOML,ARAON,North
2020-09-10T18:00:00Z,1599760800,2020,18,0,254.75,254.75,59.258,179.656,1017.6,10.18,-999.0,yes,yes,no,300534060713650,BD2GI,AOML,ARAON,North
2020-09-10T19:00:02Z,1599764403,2020,19,0,254.7917,254.7917,59.259,179.645,1017.8,10.18,-999.0,yes,yes,no,300534060713650,BD2GI,AOML,ARAON,North
2020-09-10T19:59:57Z,1599767997,2020,20,0,254.8333,254.8333,59.259,179.635,1018.0,10.18,-999.0,yes,yes,no,300534060713650,BD2GI,AOML,ARAON,North
2020-09-10T21:00:00Z,1599771600,2020,21,0,254.875,254.875,59.261,179.628,1018.2,10.18,-999.0,yes,yes,no,300534060713650,BD2GI,AOML,ARAON,North
2020-09-10T22:00:02Z,1599775203,2020,22,0,254.9167,254.9167,59.262,179.618,1018.3,10.19,-999.0,yes,yes,no,300534060713650,BD2GI,AOML,ARAON,North
2020-09-10T22:59:57Z,1599778797,2020,23,0,254.9583,254.9583,59.264,179.606,1018.2,10.19,-999.0,yes,yes,no,300534060713650,BD2GI,AOML,ARAON,North
2020-09-11T00:00:00Z,1599782400,2020,0,0,255.0,255.0,59.265,179.594,1018.0,10.2,-999.0,yes,yes,no,300534060713650,BD2GI,AOML,ARAON,North
2020-09-11T01:00:02Z,1599786003,2020,1,0,255.0417,255.0417,59.267,179.582,1017.9,10.21,-999.0,yes,yes,no,300534060713650,BD2GI,AOML,ARAON,North
2020-09-11T01:59:57Z,1599789597,2020,2,0,255.0833,255.0833,59.269,179.572,1017.8,10.21,-999.0,yes,yes,no,300534060713650,BD2GI,AOML,ARAON,North
2020-09-11T03:00:00Z,1599793200,2020,3,0,255.125,255.125,59.271,179.562,1017.7,10.21,-999.0,yes,yes,no,300534060713650,BD2GI,AOML,ARAON,North
2020-09-11T04:00:02Z,1599796803,2020,4,0,255.1667,255.1667,59.272,179.551,1017.5,10.21,-999.0,yes,yes,no,300534060713650,BD2GI,AOML,ARAON,North
2020-09-11T04:59:57Z,1599800397,2020,5,0,255.2083,255.2083,59.273,179.541,1017.3,10.21,-999.0,yes,yes,no,300534060713650,BD2GI,AOML,ARAON,North
2020-09-11T06:00:00Z,1599804000,2020,6,0,255.25,255.25,59.273,179.531,1017.1,10.21,-999.0,yes,yes,no,300534060713650,BD2GI,AOML,ARAON,North
2020-09-11T07:00:02Z,1599807603,2020,7,0,255.2917,255.2917,59.271,179.519,1017.2,10.21,-999.0,yes,yes,no,300534060713650,BD2GI,AOML,ARAON,North
2020-09-11T07:59:57Z,1599811197,2020,8,0,255.3333,255.3333,59.27,179.505,1017.2,10.21,-999.0,yes,yes,no,300534060713650,BD2GI,AOML,ARAON,North
2020-09-11T09:00:00Z,1599814800,2020,9,0,255.375,255.375,59.269,179.49,1017.3,10.2,-999.0,yes,yes,no,300534060713650,BD2GI,AOML,ARAON,North
2020-09-11T10:00:02Z,1599818403,2020,10,0,255.4167,255.4167,59.269,179.476,1017.5,10.21,-999.0,yes,yes,no,300534060713650,BD2GI,AOML,ARAON,North
2020-09-11T10:59:57Z,1599821997,2020,11,0,255.4583,255.4583,59.269,179.461,1017.5,10.21,-999.0,yes,yes,no,300534060713650,BD2GI,AOML,ARAON,North
2020-09-11T12:00:00Z,1599825600,2020,12,0,255.5,255.5,59.27,179.447,1017.7,10.21,-999.0,yes,yes,no,300534060713650,BD2GI,AOML,ARAON,North
2020-09-11T13:00:02Z,1599829203,2020,13,0,255.5417,255.5417,59.271,179.434,1017.8,10.21,-999.0,yes,yes,no,300534060713650,BD2GI,AOML,ARAON,North
2020-09-11T13:59:57Z,1599832797,2020,14,0,255.5833,255.5833,59.272,179.422,1017.7,10.2,-999.0,yes,yes,no,300534060713650,BD2GI,AOML,ARAON,North
2020-09-11T15:00:00Z,1599836400,2020,15,0,255.625,255.625,59.273,179.41,1017.6,10.22,-999.0,yes,yes,no,300534060713650,BD2GI,AOML,ARAON,North
2020-09-11T16:00:02Z,1599840003,2020,16,0,255.6667,255.6667,59.273,179.398,1017.5,10.22,-999.0,yes,yes,no,300534060713650,BD2GI,AOML,ARAON,North
2020-09-11T16:59:57Z,1599843597,2020,17,0,255.7083,255.7083,59.273,179.39,1017.4,10.22,-999.0,yes,yes,no,300534060713650,BD2GI,AOML,ARAON,North
2020-09-11T18:00:00Z,1599847200,2020,18,0,255.75,255.75,59.271,179.381,1017.5,10.22,-999.0,yes,yes,no,300534060713650,BD2GI,AOML,ARAON,North
2020-09-11T19:00:02Z,1599850803,2020,19,0,255.7917,255.7917,59.269,179.369,1017.6,10.23,-999.0,yes,yes,no,300534060713650,BD2GI,AOML,ARAON,North
2020-09-11T19:59:57Z,1599854397,2020,20,0,255.8333,255.8333,59.268,179.355,1017.7,10.23,-999.0,yes,yes,no,300534060713650,BD2GI,AOML,ARAON,North
2020-09-11T21:00:00Z,1599858000,2020,21,0,255.875,255.875,59.268,179.342,1017.7,10.23,-999.0,yes,yes,no,300534060713650,BD2GI,AOML,ARAON,North
2020-09-11T22:00:02Z,1599861603,2020,22,0,255.9167,255.9167,59.269,179.329,1017.4,10.24,-999.0,yes,yes,no,300534060713650,BD2GI,AOML,ARAON,North
2020-09-11T22:59:57Z,1599865197,2020,23,0,255.9583,255.9583,59.269,179.314,1017.0,10.25,-999.0,yes,yes,no,300534060713650,BD2GI,AOML,ARAON,North
2020-09-12T00:00:00Z,1599868800,2020,0,0,256.0,256.0,59.27,179.297,1016.4,10.26,-999.0,yes,yes,no,300534060713650,BD2GI,AOML,ARAON,North
2020-09-12T01:00:02Z,1599872403,2020,1,0,256.0417,256.0417,59.272,179.28,1015.5,10.27,-999.0,yes,yes,no,300534060713650,BD2GI,AOML,ARAON,North
2020-09-12T01:59:57Z,1599875997,2020,2,0,256.0833,256.0833,59.276,179.264,1014.2,10.27,-999.0,yes,yes,no,300534060713650,BD2GI,AOML,ARAON,North
2020-09-12T03:00:00Z,1599879600,2020,3,0,256.125,256.125,59.28,179.249,1013.0,10.26,-999.0,yes,yes,no,300534060713650,BD2GI,AOML,ARAON,North
2020-09-12T04:00:02Z,1599883203,2020,4,0,256.1667,256.1667,59.286,179.232,1011.9,10.26,-999.0,yes,yes,no,300534060713650,BD2GI,AOML,ARAON,North
2020-09-12T04:59:57Z,1599886797,2020,5,0,256.2083,256.2083,59.293,179.217,1010.9,10.25,-999.0,yes,yes,no,300534060713650,BD2GI,AOML,ARAON,North
2020-09-12T06:00:00Z,1599890400,2020,6,0,256.25,256.25,59.3,179.205,1009.6,10.24,-999.0,yes,yes,no,300534060713650,BD2GI,AOML,ARAON,North
2020-09-12T07:00:02Z,1599894003,2020,7,0,256.2917,256.2917,59.307,179.192,1008.7,10.23,-999.0,yes,yes,no,300534060713650,BD2GI,AOML,ARAON,North
2020-09-12T07:59:57Z,1599897597,2020,8,0,256.3333,256.3333,59.313,179.182,1007.4,10.21,-999.0,yes,yes,no,300534060713650,BD2GI,AOML,ARAON,North
2020-09-12T09:00:00Z,1599901200,2020,9,0,256.375,256.375,59.318,179.168,1005.9,10.21,-999.0,yes,yes,no,300534060713650,BD2GI,AOML,ARAON,North
2020-09-12T10:00:02Z,1599904803,2020,10,0,256.4167,256.4167,59.325,179.151,1004.3,10.17,-999.0,yes,yes,no,300534060713650,BD2GI,AOML,ARAON,North
2020-09-12T10:59:57Z,1599908397,2020,11,0,256.4583,256.4583,59.332,179.133,1002.7,10.14,-999.0,yes,yes,no,300534060713650,BD2GI,AOML,ARAON,North
2020-09-12T12:00:00Z,1599912000,2020,12,0,256.5,256.5,59.342,179.11,1001.2,10.12,-999.0,yes,yes,no,300534060713650,BD2GI,AOML,ARAON,North
2020-09-12T13:00:02Z,1599915603,2020,13,0,256.5417,256.5417,59.353,179.091,999.6,10.09,-999.0,yes,yes,no,300534060713650,BD2GI,AOML,ARAON,North
2020-09-12T13:59:57Z,1599919197,2020,14,0,256.5833,256.5833,59.368,179.077,998.7,10.07,-999.0,yes,yes,no,300534060713650,BD2GI,AOML,ARAON,North
2020-09-12T15:00:00Z,1599922800,2020,15,0,256.625,256.625,59.383,179.073,998.0,10.06,-999.0,yes,yes,no,300534060713650,BD2GI,AOML,ARAON,North
2020-09-12T16:00:02Z,1599926403,2020,16,0,256.6667,256.6667,59.398,179.075,998.0,10.05,-999.0,yes,yes,no,300534060713650,BD2GI,AOML,ARAON,North
2020-09-12T16:59:57Z,1599929997,2020,17,0,256.7083,256.7083,59.41,179.084,998.5,10.04,-999.0,yes,yes,no,300534060713650,BD2GI,AOML,ARAON,North
2020-09-12T18:00:00Z,1599933600,2020,18,0,256.75,256.75,59.418,179.095,999.1,10.02,-999.0,yes,yes,no,300534060713650,BD2GI,AOML,ARAON,North
2020-09-12T19:00:02Z,1599937203,2020,19,0,256.7917,256.7917,59.42,179.106,999.7,10.01,-999.0,yes,yes,no,300534060713650,BD2GI,AOML,ARAON,North
2020-09-12T19:59:57Z,1599940797,2020,20,0,256.8333,256.8333,59.421,179.114,1000.4,10.01,-999.0,yes,yes,no,300534060713650,BD2GI,AOML,ARAON,North
2020-09-12T21:00:00Z,1599944400,2020,21,0,256.875,256.875,59.419,179.117,1000.9,10.0,-999.0,yes,yes,no,300534060713650,BD2GI,AOML,ARAON,North
2020-09-12T22:00:02Z,1599948003,2020,22,0,256.9167,256.9167,59.416,179.11,1001.5,9.99,-999.0,yes,yes,no,300534060713650,BD2GI,AOML,ARAON,North
2020-09-12T22:59:57Z,1599951597,2020,23,0,256.9583,256.9583,59.414,179.097,1001.9,10.0,-999.0,yes,yes,no,300534060713650,BD2GI,AOML,ARAON,North
2020-09-13T00:00:00Z,1599955200,2020,0,0,257.0,257.0,59.415,179.079,1001.9,10.0,-999.0,yes,yes,no,300534060713650,BD2GI,AOML,ARAON,North
2020-09-13T01:00:02Z,1599958803,2020,1,0,257.0417,257.0417,59.419,179.058,1002.0,10.0,-999.0,yes,yes,no,300534060713650,BD2GI,AOML,ARAON,North
2020-09-13T01:59:57Z,1599962397,2020,2,0,257.0833,257.0833,59.427,179.038,1001.6,10.0,-999.0,yes,yes,no,300534060713650,BD2GI,AOML,ARAON,North
2020-09-13T03:00:00Z,1599966000,2020,3,0,257.125,257.125,59.439,179.017,1001.5,10.0,-999.0,yes,yes,no,300534060713650,BD2GI,AOML,ARAON,North
2020-09-13T04:00:02Z,1599969603,2020,4,0,257.1667,257.1667,59.453,179.004,1001.3,10.0,-999.0,yes,yes,no,300534060713650,BD2GI,AOML,ARAON,North
2020-09-13T04:59:57Z,1599973197,2020,5,0,257.2083,257.2083,59.468,178.997,1001.5,9.99,-999.0,yes,yes,no,300534060713650,BD2GI,AOML,ARAON,North
2020-09-13T06:00:00Z,1599976800,2020,6,0,257.25,257.25,59.483,178.996,1001.8,9.99,-999.0,yes,yes,no,300534060713650,BD2GI,AOML,ARAON,North
2020-09-13T07:00:02Z,1599980403,2020,7,0,257.2917,257.2917,59.497,179.002,1002.1,9.98,-999.0,yes,yes,no,300534060713650,BD2GI,AOML,ARAON,North
2020-09-13T07:59:57Z,1599983997,2020,8,0,257.3333,257.3333,59.506,179.012,1002.3,9.98,-999.0,yes,yes,no,300534060713650,BD2GI,AOML,ARAON,North
2020-09-13T09:00:00Z,1599987600,2020,9,0,257.375,257.375,59.512,179.024,1002.3,9.97,-999.0,yes,yes,no,300534060713650,BD2GI,AOML,ARAON,North
2020-09-13T10:00:02Z,1599991203,2020,10,0,257.4167,257.4167,59.513,179.036,1002.3,9.97,-999.0,yes,yes,no,300534060713650,BD2GI,AOML,ARAON,North
2020-09-13T10:59:57Z,1599994797,2020,11,0,257.4583,257.4583,59.512,179.041,1002.0,9.96,-999.0,yes,yes,no,300534060713650,BD2GI,AOML,ARAON,North
2020-09-13T12:00:00Z,1599998400,2020,12,0,257.5,257.5,59.509,179.038,1001.6,9.96,-999.0,yes,yes,no,300534060713650,BD2GI,AOML,ARAON,North
2020-09-13T13:00:02Z,1600002003,2020,13,0,257.5417,257.5417,59.505,179.027,1001.3,9.95,-999.0,yes,yes,no,300534060713650,BD2GI,AOML,ARAON,North
2020-09-13T13:59:57Z,1600005597,2020,14,0,257.5833,257.5833,59.504,179.006,1001.0,9.94,-999.0,yes,yes,no,300534060713650,BD2GI,AOML,ARAON,North
2020-09-13T15:00:00Z,1600009200,2020,15,0,257.625,257.625,59.507,178.984,1000.6,9.94,-999.0,yes,yes,no,300534060713650,BD2GI,AOML,ARAON,North
2020-09-13T16:00:02Z,1600012803,2020,16,0,257.6667,257.6667,59.515,178.96,1000.3,9.93,-999.0,yes,yes,no,300534060713650,BD2GI,AOML,ARAON,North
2020-09-13T16:59:57Z,1600016397,2020,17,0,257.7083,257.7083,59.525,178.941,999.9,9.92,-999.0,yes,yes,no,300534060713650,BD2GI,AOML,ARAON,North
2020-09-13T18:00:00Z,1600020000,2020,18,0,257.75,257.75,59.539,178.926,999.7,9.91,-999.0,yes,yes,no,300534060713650,BD2GI,AOML,ARAON,North
2020-09-13T19:00:02Z,1600023603,2020,19,0,257.7917,257.7917,59.556,178.921,999.8,9.91,-999.0,yes,yes,no,300534060713650,BD2GI,AOML,ARAON,North
2020-09-13T19:59:57Z,1600027197,2020,20,0,257.8333,257.8333,59.571,178.924,999.9,9.9,-999.0,yes,yes,no,300534060713650,BD2GI,AOML,ARAON,North
2020-09-13T21:00:00Z,1600030800,2020,21,0,257.875,257.875,59.585,178.934,999.9,9.9,-999.0,yes,yes,no,300534060713650,BD2GI,AOML,ARAON,North
2020-09-13T22:00:02Z,1600034403,2020,22,0,257.9167,257.9167,59.595,178.951,999.7,9.9,-999.0,yes,yes,no,300534060713650,BD2GI,AOML,ARAON,North
2020-09-13T22:59:57Z,1600037997,2020,23,0,257.9583,257.9583,59.6,178.966,999.5,9.9,-999.0,yes,yes,no,300534060713650,BD2GI,AOML,ARAON,North
2020-09-14T00:00:00Z,1600041600,2020,0,0,258.0,258.0,59.602,178.977,999.3,9.89,-999.0,yes,yes,no,300534060713650,BD2GI,AOML,ARAON,North
2020-09-14T01:00:02Z,1600045203,2020,1,0,258.0417,258.0417,59.603,178.981,999.1,9.89,-999.0,yes,yes,no,300534060713650,BD2GI,AOML,ARAON,North
2020-09-14T01:59:57Z,1600048797,2020,2,0,258.0833,258.0833,59.603,178.978,998.9,9.89,-999.0,yes,yes,no,300534060713650,BD2GI,AOML,ARAON,North
2020-09-14T03:00:00Z,1600052400,2020,3,0,258.125,258.125,59.603,178.97,998.7,9.88,-999.0,yes,yes,no,300534060713650,BD2GI,AOML,ARAON,North
2020-09-14T04:00:02Z,1600056003,2020,4,0,258.1667,258.1667,59.606,178.957,998.4,9.88,-999.0,yes,yes,no,300534060713650,BD2GI,AOML,ARAON,North
2020-09-14T04:59:57Z,1600059597,2020,5,0,258.2083,258.2083,59.612,178.941,998.1,9.87,-999.0,yes,yes,no,300534060713650,BD2GI,AOML,ARAON,North
2020-09-14T06:00:00Z,1600063200,2020,6,0,258.25,258.25,59.619,178.925,998.0,9.86,-999.0,yes,yes,no,300534060713650,BD2GI,AOML,ARAON,North
2020-09-14T07:00:02Z,1600066803,2020,7,0,258.2917,258.2917,59.629,178.912,997.9,9.85,-999.0,yes,yes,no,300534060713650,BD2GI,AOML,ARAON,North
2020-09-14T07:59:57Z,1600070397,2020,8,0,258.3333,258.3333,59.642,178.901,998.0,9.84,-999.0,yes,yes,no,300534060713650,BD2GI,AOML,ARAON,North
2020-09-14T09:00:00Z,1600074000,2020,9,0,258.375,258.375,59.658,178.895,998.1,9.83,-999.0,yes,yes,no,300534060713650,BD2GI,AOML,ARAON,North
2020-09-14T10:00:02Z,1600077603,2020,10,0,258.4167,258.4167,59.673,178.898,998.3,9.82,-999.0,yes,yes,no,300534060713650,BD2GI,AOML,ARAON,North
2020-09-14T10:59:57Z,1600081197,2020,11,0,258.4583,258.4583,59.685,178.908,998.5,9.81,-999.0,yes,yes,no,300534060713650,BD2GI,AOML,ARAON,North
2020-09-14T12:00:00Z,1600084800,2020,12,0,258.5,258.5,59.696,178.924,998.6,9.8,-999.0,yes,yes,no,300534060713650,BD2GI,AOML,ARAON,North
2020-09-14T13:00:02Z,1600088403,2020,13,0,258.5417,258.5417,59.701,178.942,998.6,9.8,-999.0,yes,yes,no,300534060713650,BD2GI,AOML,ARAON,North
2020-09-14T13:59:57Z,1600091997,2020,14,0,258.5833,258.5833,59.703,178.956,998.7,9.79,-999.0,yes,yes,no,300534060713650,BD2GI,AOML,ARAON,North
2020-09-14T15:00:00Z,1600095600,2020,15,0,258.625,258.625,59.703,178.967,998.9,9.79,-999.0,yes,yes,no,300534060713650,BD2GI,AOML,ARAON,North
2020-09-14T16:00:02Z,1600099203,2020,16,0,258.6667,258.6667,59.701,178.973,999.1,9.78,-999.0,yes,yes,no,300534060713650,BD2GI,AOML,ARAON,North
2020-09-14T16:59:57Z,1600102797,2020,17,0,258.7083,258.7083,59.699,178.972,999.3,9.78,-999.0,yes,yes,no,300534060713650,BD2GI,AOML,ARAON,North
2020-09-14T18:00:00Z,1600106400,2020,18,0,258.75,258.75,59.697,178.966,999.8,9.77,-999.0,yes,yes,no,300534060713650,BD2GI,AOML,ARAON,North
2020-09-14T19:00:02Z,1600110003,2020,19,0,258.7917,258.7917,59.698,178.956,1000.2,9.77,-999.0,yes,yes,no,300534060713650,BD2GI,AOML,ARAON,North
2020-09-14T19:59:57Z,1600113597,2020,20,0,258.8333,258.8333,59.703,178.942,1000.6,9.77,-999.0,yes,yes,no,300534060713650,BD2GI,AOML,ARAON,North